Погода в Урале

Россия / Оренбургская область     51°10′16″N   57°25′14″E
темп.,
°C
ветер,
м/с
пор.,
м/с
влажн.,
%
обл.,
%
осадки,
мм/ч
давл.,
гПа
погр.,
м
4 августа, ср
ср423:00+27юв223246 0.0 101313
02:00+24в11374 0.0 101311
05:00+22ююв223912 0.0 101311
08:00+27з123066 0.0 1014146
11:00+35з341857 0.0 10131020
14:00+39з451362 0.0 10114422
17:00+31всв782724 0.0 1012253
20:00+31св582643 0.1 1012196
5 августа, чт
чт523:00+25юв411414 0.1 1012198
02:00+23всв224597 0.0 101211
05:00+23вюв224190 0.0 101111
08:00+27в2233100 0.0 1011163
11:00+34юз3420100 0.0 1010741
14:00+38юз4513100 0.0 10084370
17:00+38ююз4613100 0.1 10073853
20:00+33ссз011793 0.0 100551
6 августа, пт
пт623:00+24всв4104033 0.0 1007146
02:00+22с3349100 0.0 100834
05:00+21сз225691 0.1 100823
08:00+23сз245491 0.1 1009310
11:00+28ссз67419 0.1 10091108
14:00+31ссз77230 0.0 10082462
17:00+31ссз87210 0.0 10092573
20:00+27ссз610270 0.0 1010622
7 августа, сб
сб723:00+21с512421 0.0 1012340
02:00+17ссв345884 0.0 101363
05:00+15ссв22621 0.0 101424
08:00+20ссз24425 0.0 1015264
11:00+25ссз452926 0.0 10141623
14:00+29ссз551891 0.0 10132244
17:00+29сз66155 0.0 10122356
20:00+26ссз610195 0.0 1013433
8 августа, вс
вс823:00+19с47380 0.0 1015112
02:00+16ссв22460 0.0 101516
05:00+14с22500 0.0 101614
08:00+19ссз34390 0.0 1016299
11:00+24ссз57220 0.0 10161456
14:00+28ссз67230 0.0 10142114
17:00+29ссз67250 0.0 10142429
20:00+26с483426 0.0 1015339